sat.trackr.live / text

‹ back to catalog

ONEWEB-0066

NORAD 45424 · 2020-020A

PAYLOAD ACTIVE UNKNOWN

§ Identity

Operator
Country
UK
Launch date
2020-03-21
Launch site
TYMSC
Launch vehicle
Mass (kg)
RCS (m²)

Purposes: comms

External: N2YO · Heavens-Above · Gunter

§ Orbital elements

Epoch: 2026-05-25T02:31:18.391872Z

Period
109.80 min
Inclination
87.8914°
Eccentricity
0.0001867
Mean motion
13.11418148 rev/d
Perigee alt
1,216.3 km
Apogee alt
1,219.1 km
Semi-major
7,595.8 km
B*
7.8975e-4
RAAN
25.6634°
Arg perigee
76.3193°
Mean anomaly
283.8143°
Rev number
29,965

§ Raw data

ONEWEB-00661 45424U 20020A   26145.10507398  .00000293  00000+0  78975-3 0  99962 45424  87.8914  25.6634 0001867  76.3193 283.8143 13.11418148299657

JSON: /api/v1/satellites/45424 · /tle

For live sub-satellite position, see the globe view (requires WebGL).

§ Visibility from observer

Set your observer location to see the next 7 days of passes ≥ 10°. The values pass through the URL so the page stays shareable.

No JS? Fill the form by hand. The geolocation button needs JavaScript.